2023/05/08 23:33:46+0000,-32.04,-45.17,-38.62,-38.97,-50.17,-53.61
2023/05/08 23:34:38+0000,-31.92,-44.78,-38.64,-40.50,-51.38,-53.66
2023/05/08 23:35:30+0000,-30.96,-45.41,-39.03,-40.13,-51.93,-53.67
2023/05/08 23:36:22+0000,-32.30,-46.37,-39.65,-40.16,-50.85,-53.71
2023/05/08 23:37:14+0000,-31.31,-46.41,-39.35,-39.93,-51.45,-53.31
2023/05/08 23:38:06+0000,-30.91,-46.08,-38.89,-40.71,-52.23,-53.09
2023/05/08 23:38:58+0000,-31.28,-46.05,-38.71,-39.58,-52.18,-53.60
2023/05/08 23:39:50+0000,-31.94,-45.71,-37.92,-40.80,-51.64,-53.60
2023/05/08 23:40:42+0000,-31.54,-45.92,-38.17,-40.56,-51.94,-53.24
2023/05/08 23:41:41+0000,-31.89,-45.15,-38.18,-40.77,-52.34,-53.00
2023/05/08 23:42:33+0000,-30.26,-45.37,-38.17,-40.48,-52.08,-53.94
2023/05/08 23:43:25+0000,-32.21,-44.42,-37.84,-40.71,-51.77,-53.75
2023/05/08 23:44:17+0000,-31.26,-44.57,-38.93,-41.13,-51.41,-53.60
2023/05/08 23:45:09+0000,-31.93,-44.12,-38.33,-42.09,-52.63,-53.57
2023/05/08 23:46:01+0000,-31.38,-44.83,-39.22,-41.51,-52.41,-53.56
2023/05/08 23:46:53+0000,-31.88,-43.88,-38.28,-41.09,-50.45,-53.81
2023/05/08 23:47:45+0000,-31.30,-44.38,-39.68,-40.20,-50.60,-52.94
2023/05/08 23:48:37+0000,-31.32,-44.69,-39.77,-40.81,-52.74,-53.31
2023/05/08 23:49:29+0000,-32.57,-44.86,-39.70,-41.99,-52.47,-53.50
2023/05/08 23:50:21+0000,-31.24,-44.41,-39.04,-40.95,-50.50,-53.07
2023/05/08 23:51:22+0000,-32.41,-44.48,-38.84,-41.65,-51.08,-53.29
2023/05/08 23:52:14+0000,-31.63,-44.93,-38.84,-41.13,-49.65,-53.14
2023/05/08 23:53:06+0000,-31.94,-44.09,-38.56,-41.16,-53.26,-54.08
2023/05/08 23:53:58+0000,-32.58,-45.17,-39.70,-39.97,-52.73,-53.57
2023/05/08 23:54:50+0000,-31.63,-44.09,-39.50,-39.41,-49.18,-52.74
2023/05/08 23:55:42+0000,-31.61,-43.29,-39.65,-39.56,-51.81,-54.02
2023/05/08 23:56:34+0000,-31.34,-44.59,-39.40,-39.74,-52.81,-54.06
2023/05/08 23:57:26+0000,-31.35,-43.48,-38.57,-41.05,-52.92,-53.63
2023/05/08 23:58:18+0000,-31.12,-45.03,-38.98,-40.27,-49.62,-53.41
2023/05/08 23:59:10+0000,-31.89,-44.36,-38.82,-40.44,-51.69,-53.62
2023/05/09 00:00:02+0000,-32.19,-44.53,-39.30,-40.90,-52.51,-53.49
2023/05/09 00:01:06+0000,-31.64,-43.68,-39.24,-40.13,-52.58,-53.52
2023/05/09 00:01:58+0000,-32.08,-44.03,-37.38,-40.88,-53.02,-53.21
2023/05/09 00:02:50+0000,-31.74,-43.93,-38.72,-40.13,-50.05,-53.68
2023/05/09 00:03:42+0000,-31.30,-43.86,-38.51,-40.22,-50.94,-53.51
2023/05/09 00:04:34+0000,-31.23,-43.47,-38.30,-40.55,-52.78,-53.39
2023/05/09 00:05:26+0000,-31.17,-44.32,-38.67,-40.68,-52.56,-53.09
2023/05/09 00:06:18+0000,-31.56,-43.84,-38.71,-40.01,-50.90,-53.54
2023/05/09 00:07:10+0000,-31.66,-44.12,-38.26,-39.73,-52.64,-53.43
2023/05/09 00:08:02+0000,-31.83,-43.69,-38.52,-40.83,-52.72,-53.36
2023/05/09 00:08:54+0000,-31.40,-43.42,-38.38,-40.75,-53.13,-52.97
2023/05/09 00:09:46+0000,-31.45,-43.80,-37.71,-40.04,-50.55,-53.34
2023/05/09 00:10:38+0000,-31.86,-44.57,-38.14,-39.94,-52.82,-52.84
2023/05/09 00:11:37+0000,-31.58,-44.10,-38.19,-41.23,-52.28,-53.89
2023/05/09 00:12:29+0000,-31.69,-44.29,-38.59,-40.69,-52.91,-53.15
2023/05/09 00:13:21+0000,-30.67,-43.83,-38.33,-41.69,-50.88,-53.22
2023/05/09 00:14:13+0000,-32.16,-43.82,-38.48,-40.61,-50.79,-52.97
2023/05/09 00:15:05+0000,-31.95,-43.69,-38.90,-40.49,-52.92,-53.60
2023/05/09 00:15:57+0000,-31.10,-43.99,-38.87,-40.52,-53.06,-53.47
2023/05/09 00:16:50+0000,-31.35,-43.79,-38.50,-40.05,-49.82,-53.09
2023/05/09 00:17:42+0000,-31.46,-43.97,-38.73,-41.15,-49.79,-53.52
2023/05/09 00:18:34+0000,-31.51,-43.86,-38.58,-40.36,-52.67,-53.10
2023/05/09 00:19:26+0000,-31.84,-44.26,-38.63,-40.08,-52.68,-53.68
2023/05/09 00:20:18+0000,-30.93,-43.93,-38.82,-40.51,-50.15,-53.40
2023/05/09 00:21:17+0000,-31.12,-44.26,-39.16,-41.03,-50.91,-53.78
2023/05/09 00:22:09+0000,-31.84,-43.95,-39.19,-40.35,-51.28,-53.56
2023/05/09 00:23:01+0000,-31.82,-44.32,-38.61,-40.19,-52.20,-53.68
2023/05/09 00:23:53+0000,-31.33,-44.14,-38.77,-41.12,-50.13,-53.51
2023/05/09 00:24:45+0000,-31.99,-43.94,-38.79,-41.07,-50.58,-52.73
2023/05/09 00:25:37+0000,-32.00,-44.74,-38.82,-41.11,-52.71,-53.16
2023/05/09 00:26:29+0000,-32.00,-43.85,-38.96,-41.65,-52.49,-53.46
2023/05/09 00:27:21+0000,-31.37,-44.63,-38.86,-41.29,-48.71,-53.37
2023/05/09 00:28:13+0000,-31.82,-44.78,-39.32,-41.19,-50.65,-53.07
2023/05/09 00:29:05+0000,-32.09,-43.96,-38.21,-42.22,-52.78,-52.94
2023/05/09 00:29:57+0000,-31.16,-44.99,-38.89,-42.14,-52.55,-53.09
2023/05/09 00:30:49+0000,-31.94,-44.45,-38.59,-42.04,-50.96,-53.35
2023/05/09 00:31:48+0000,-31.98,-45.57,-38.88,-42.72,-50.07,-53.22
2023/05/09 00:32:40+0000,-31.62,-44.85,-38.48,-41.41,-52.49,-53.35
2023/05/09 00:33:32+0000,-32.17,-45.51,-38.23,-42.63,-52.41,-52.99
2023/05/09 00:34:24+0000,-31.76,-44.06,-38.29,-41.88,-51.88,-53.54
2023/05/09 00:35:17+0000,-32.55,-44.86,-38.79,-41.84,-50.83,-53.31
2023/05/09 00:36:09+0000,-32.70,-44.97,-38.82,-42.13,-52.28,-53.86
2023/05/09 00:37:01+0000,-32.51,-44.90,-38.37,-41.41,-52.89,-52.93
2023/05/09 00:37:53+0000,-31.94,-44.96,-38.27,-40.86,-50.25,-53.17
2023/05/09 00:38:45+0000,-31.44,-45.12,-38.45,-41.53,-51.29,-53.10
2023/05/09 00:39:37+0000,-31.79,-45.25,-38.55,-40.11,-50.78,-53.36
2023/05/09 00:40:29+0000,-32.82,-44.67,-38.92,-40.52,-50.81,-53.29
2023/05/09 00:41:28+0000,-31.96,-43.50,-38.71,-40.33,-51.24,-53.11
2023/05/09 00:42:20+0000,-31.89,-43.20,-39.26,-40.59,-49.46,-53.65
2023/05/09 00:43:12+0000,-31.89,-43.17,-39.07,-40.96,-50.85,-53.37
2023/05/09 00:44:04+0000,-32.81,-44.53,-39.23,-39.81,-51.03,-53.57
2023/05/09 00:44:56+0000,-32.91,-43.98,-38.93,-41.28,-51.17,-53.76
2023/05/09 00:45:48+0000,-31.40,-46.04,-38.66,-40.03,-49.39,-53.15
2023/05/09 00:46:40+0000,-32.11,-45.46,-39.43,-39.66,-51.85,-54.18
2023/05/09 00:47:32+0000,-31.66,-46.97,-38.87,-41.05,-51.44,-54.18
2023/05/09 00:48:24+0000,-31.47,-44.33,-38.79,-40.89,-50.33,-54.29
2023/05/09 00:49:16+0000,-31.97,-44.35,-39.54,-40.91,-50.33,-53.62
2023/05/09 00:50:08+0000,-32.39,-44.17,-38.68,-40.44,-51.83,-53.69
2023/05/09 00:51:09+0000,-31.97,-44.76,-38.53,-40.56,-52.11,-54.15
2023/05/09 00:52:01+0000,-31.89,-43.87,-39.33,-39.96,-51.40,-53.66
2023/05/09 00:52:53+0000,-32.04,-44.07,-40.36,-40.65,-49.96,-54.24
2023/05/09 00:53:45+0000,-32.49,-44.54,-39.64,-40.40,-48.74,-51.87
2023/05/09 00:54:37+0000,-31.46,-43.24,-39.48,-40.08,-52.28,-53.31
2023/05/09 00:55:29+0000,-31.93,-43.64,-39.58,-40.84,-52.42,-53.40
2023/05/09 00:56:21+0000,-32.30,-43.21,-39.76,-40.53,-50.12,-52.61
2023/05/09 00:57:13+0000,-31.76,-45.19,-39.26,-40.14,-49.74,-53.12
2023/05/09 00:58:05+0000,-32.27,-43.88,-39.33,-40.59,-52.23,-52.39
2023/05/09 00:58:57+0000,-32.03,-44.10,-39.29,-40.15,-52.42,-52.96
2023/05/09 00:59:50+0000,-31.40,-43.13,-39.41,-39.64,-47.53,-51.29
2023/05/09 01:00:42+0000,-31.85,-44.07,-39.04,-39.90,-51.62,-51.81
2023/05/09 01:01:42+0000,-32.63,-43.78,-39.54,-39.94,-50.95,-53.31
2023/05/09 01:02:34+0000,-32.46,-44.39,-39.30,-41.38,-52.36,-53.40
2023/05/09 01:03:26+0000,-32.70,-44.31,-39.32,-40.03,-51.96,-52.81
2023/05/09 01:04:18+0000,-32.63,-43.36,-39.54,-40.59,-51.08,-52.28
2023/05/09 01:05:10+0000,-32.70,-43.82,-39.45,-40.31,-52.28,-52.96
2023/05/09 01:06:02+0000,-32.71,-43.25,-39.11,-40.33,-50.56,-53.05
2023/05/09 01:06:54+0000,-32.09,-44.21,-38.47,-40.32,-47.66,-53.42
2023/05/09 01:07:46+0000,-33.50,-44.86,-38.68,-39.21,-48.79,-52.99
2023/05/09 01:08:38+0000,-31.62,-43.66,-38.98,-38.72,-51.99,-52.62
2023/05/09 01:09:30+0000,-32.31,-44.59,-38.26,-40.40,-52.34,-53.22
2023/05/09 01:10:22+0000,-32.87,-44.95,-38.08,-39.85,-48.60,-53.40
2023/05/09 01:11:22+0000,-32.21,-44.44,-38.82,-40.12,-47.77,-53.25
2023/05/09 01:12:14+0000,-33.24,-44.40,-38.34,-39.26,-48.06,-53.27
2023/05/09 01:13:06+0000,-32.39,-44.94,-38.64,-38.03,-51.45,-53.10
2023/05/09 01:13:58+0000,-32.16,-45.21,-38.73,-38.45,-51.77,-52.97
2023/05/09 01:14:50+0000,-32.07,-44.62,-39.27,-39.65,-47.70,-53.57
2023/05/09 01:15:42+0000,-32.21,-45.08,-38.66,-38.48,-48.71,-53.25
2023/05/09 01:16:34+0000,-32.61,-45.16,-38.62,-40.38,-52.13,-52.95
2023/05/09 01:17:26+0000,-32.75,-43.96,-38.94,-40.37,-51.43,-53.05
2023/05/09 01:18:18+0000,-32.05,-44.27,-38.97,-40.75,-50.54,-52.87
2023/05/09 01:19:10+0000,-32.32,-44.76,-38.90,-40.23,-51.95,-53.14
2023/05/09 01:20:02+0000,-32.54,-45.20,-38.28,-39.57,-51.61,-52.93
2023/05/09 01:21:02+0000,-32.38,-44.33,-38.50,-40.92,-51.58,-53.40
2023/05/09 01:21:54+0000,-32.93,-43.74,-38.35,-39.24,-51.31,-53.09
2023/05/09 01:22:46+0000,-33.03,-44.75,-37.92,-40.65,-51.13,-53.13
2023/05/09 01:23:38+0000,-31.95,-45.27,-38.58,-40.95,-52.07,-53.39
2023/05/09 01:24:30+0000,-31.83,-45.25,-37.91,-39.56,-52.28,-52.31
2023/05/09 01:25:22+0000,-31.87,-44.34,-38.09,-39.88,-52.01,-53.23
2023/05/09 01:26:14+0000,-32.57,-44.49,-38.69,-41.13,-51.66,-53.21
2023/05/09 01:27:06+0000,-31.01,-44.02,-38.22,-40.85,-51.00,-53.14
2023/05/09 01:27:58+0000,-31.66,-44.52,-38.38,-40.84,-51.87,-53.35
2023/05/09 01:28:50+0000,-32.15,-43.99,-38.28,-40.90,-51.92,-52.59
2023/05/09 01:29:42+0000,-32.00,-44.65,-38.33,-39.91,-51.46,-52.69
2023/05/09 01:30:34+0000,-32.19,-45.31,-38.28,-40.08,-48.24,-53.72
2023/05/09 01:31:34+0000,-30.88,-43.44,-37.99,-40.03,-49.23,-51.23
2023/05/09 01:32:26+0000,-33.10,-44.60,-39.16,-39.42,-52.24,-51.99
2023/05/09 01:33:18+0000,-32.22,-44.28,-39.08,-38.46,-51.46,-52.55
2023/05/09 01:34:10+0000,-33.39,-43.85,-38.77,-39.16,-51.51,-52.02
2023/05/09 01:35:02+0000,-32.35,-43.89,-38.91,-39.41,-50.20,-51.98
2023/05/09 01:35:54+0000,-32.80,-43.74,-38.47,-39.15,-51.54,-52.82
2023/05/09 01:36:46+0000,-32.19,-43.91,-39.28,-38.25,-51.08,-52.37
2023/05/09 01:37:38+0000,-32.59,-45.03,-39.78,-39.44,-52.03,-52.48
2023/05/09 01:38:30+0000,-33.05,-43.62,-39.00,-40.02,-51.62,-52.84
2023/05/09 01:39:22+0000,-32.11,-43.45,-39.04,-40.29,-51.38,-52.51
2023/05/09 01:40:14+0000,-32.09,-44.11,-39.08,-39.67,-51.81,-52.17
2023/05/09 01:41:14+0000,-32.28,-43.61,-39.03,-39.21,-50.13,-52.48
2023/05/09 01:42:06+0000,-32.71,-43.61,-39.46,-39.66,-51.06,-52.95
2023/05/09 01:42:58+0000,-32.54,-44.29,-39.53,-38.90,-52.55,-52.24
2023/05/09 01:43:50+0000,-32.71,-45.06,-39.06,-39.70,-50.66,-52.57
2023/05/09 01:44:42+0000,-32.37,-44.64,-39.30,-39.12,-51.85,-52.59
2023/05/09 01:45:34+0000,-32.43,-44.64,-39.17,-40.06,-51.30,-52.42
2023/05/09 01:46:26+0000,-31.91,-44.45,-39.10,-38.45,-52.04,-52.51
2023/05/09 01:47:18+0000,-31.72,-45.13,-39.16,-40.31,-51.89,-52.06
2023/05/09 01:48:10+0000,-32.42,-44.72,-39.49,-41.03,-52.07,-51.59
2023/05/09 01:49:02+0000,-32.56,-44.27,-39.20,-40.86,-51.66,-52.05
2023/05/09 01:49:54+0000,-32.38,-43.46,-39.46,-40.25,-51.68,-52.15
2023/05/09 01:50:46+0000,-31.62,-44.13,-38.70,-40.40,-51.48,-52.36
2023/05/09 01:51:46+0000,-31.72,-44.99,-38.88,-40.29,-51.48,-52.68
2023/05/09 01:52:38+0000,-32.61,-45.08,-39.06,-39.52,-51.41,-53.07
2023/05/09 01:53:30+0000,-33.03,-45.09,-40.11,-39.96,-51.42,-52.51
2023/05/09 01:54:22+0000,-31.31,-45.95,-39.39,-40.57,-51.13,-51.76
2023/05/09 01:55:14+0000,-32.17,-45.41,-40.28,-40.92,-52.00,-51.37
2023/05/09 01:56:06+0000,-31.69,-46.06,-38.26,-43.75,-51.23,-52.58
2023/05/09 01:56:58+0000,-32.31,-45.36,-39.12,-42.30,-52.08,-52.54
2023/05/09 01:57:50+0000,-33.26,-45.63,-39.14,-43.73,-52.20,-52.77
2023/05/09 01:58:42+0000,-32.78,-45.52,-38.37,-43.32,-52.01,-52.62
2023/05/09 01:59:34+0000,-32.04,-45.09,-39.23,-42.96,-52.31,-52.45
2023/05/09 02:00:26+0000,-32.25,-43.85,-39.14,-42.28,-52.10,-52.05
2023/05/09 02:01:26+0000,-32.17,-42.91,-39.15,-42.39,-51.35,-51.98
2023/05/09 02:02:18+0000,-32.23,-42.66,-39.37,-42.44,-51.71,-52.30
2023/05/09 02:03:10+0000,-32.00,-43.66,-39.48,-41.61,-52.41,-52.52
2023/05/09 02:04:02+0000,-31.96,-44.26,-39.50,-41.31,-51.72,-52.49
2023/05/09 02:04:54+0000,-31.92,-44.36,-38.86,-42.30,-51.78,-51.85
2023/05/09 02:05:46+0000,-31.73,-43.56,-39.11,-40.72,-51.42,-51.90
2023/05/09 02:06:38+0000,-32.23,-44.13,-39.24,-41.18,-51.92,-51.38
2023/05/09 02:07:30+0000,-31.35,-42.92,-39.00,-41.77,-51.54,-51.94
2023/05/09 02:08:22+0000,-31.46,-44.16,-39.77,-41.54,-51.88,-52.05
2023/05/09 02:09:14+0000,-32.33,-43.56,-39.09,-40.83,-51.19,-52.24
2023/05/09 02:10:06+0000,-32.95,-44.59,-39.15,-41.78,-51.63,-51.52
2023/05/09 02:11:05+0000,-31.87,-43.13,-39.29,-42.01,-52.45,-52.37
2023/05/09 02:11:58+0000,-32.53,-42.80,-39.50,-41.76,-50.97,-51.58
2023/05/09 02:12:50+0000,-32.17,-43.10,-38.20,-40.18,-51.46,-51.63
2023/05/09 02:13:42+0000,-32.15,-42.83,-39.50,-39.43,-51.35,-51.49
2023/05/09 02:14:34+0000,-33.52,-42.01,-38.28,-40.28,-50.94,-52.03
2023/05/09 02:15:26+0000,-32.31,-42.23,-39.93,-39.46,-52.08,-51.67
2023/05/09 02:16:18+0000,-32.98,-42.46,-39.06,-40.02,-51.07,-52.54
2023/05/09 02:17:10+0000,-32.26,-42.25,-39.22,-40.61,-51.10,-51.43
2023/05/09 02:18:02+0000,-32.52,-43.38,-39.00,-39.94,-51.14,-51.90
2023/05/09 02:18:54+0000,-32.99,-42.78,-39.15,-40.26,-51.31,-51.54
2023/05/09 02:19:46+0000,-33.06,-42.96,-39.74,-39.89,-50.57,-52.09
2023/05/09 02:20:38+0000,-32.02,-42.92,-39.08,-40.96,-50.72,-51.96
2023/05/09 02:21:37+0000,-32.77,-44.02,-39.61,-40.34,-51.21,-52.13
2023/05/09 02:22:29+0000,-33.05,-43.53,-39.83,-40.22,-50.77,-51.97
2023/05/09 02:23:21+0000,-32.39,-43.81,-38.67,-40.58,-50.92,-51.81
2023/05/09 02:24:13+0000,-32.28,-43.66,-39.82,-41.02,-51.44,-52.04
2023/05/09 02:25:05+0000,-32.41,-43.03,-39.57,-42.09,-51.70,-52.08
2023/05/09 02:25:57+0000,-32.83,-42.64,-39.47,-40.27,-50.95,-52.52
2023/05/09 02:26:49+0000,-32.39,-43.06,-38.62,-42.32,-50.75,-52.30
2023/05/09 02:27:41+0000,-31.71,-42.16,-39.59,-40.59,-51.06,-52.40
2023/05/09 02:28:33+0000,-32.20,-44.03,-39.36,-40.85,-50.21,-52.39
2023/05/09 02:29:25+0000,-33.11,-43.23,-39.69,-41.84,-50.35,-51.77
2023/05/09 02:30:17+0000,-32.73,-42.55,-39.27,-41.31,-50.44,-51.94
2023/05/09 02:31:22+0000,-31.86,-42.90,-39.78,-39.83,-50.27,-51.93
2023/05/09 02:32:14+0000,-32.46,-42.42,-39.32,-38.99,-50.15,-51.76
2023/05/09 02:33:06+0000,-32.49,-43.62,-38.82,-38.82,-50.72,-51.75
2023/05/09 02:33:58+0000,-32.95,-44.00,-39.09,-38.28,-50.09,-51.82
2023/05/09 02:34:50+0000,-32.69,-42.03,-38.87,-38.91,-50.41,-52.23
2023/05/09 02:35:42+0000,-32.14,-41.86,-39.19,-38.42,-50.79,-51.77
2023/05/09 02:36:34+0000,-32.14,-41.87,-38.16,-38.95,-50.37,-51.45
2023/05/09 02:37:26+0000,-34.00,-42.68,-39.19,-38.36,-50.47,-52.08
2023/05/09 02:38:18+0000,-32.84,-42.51,-38.99,-39.15,-49.69,-52.08
2023/05/09 02:39:10+0000,-32.33,-42.70,-38.04,-43.38,-50.61,-52.04
2023/05/09 02:40:02+0000,-31.85,-42.14,-38.31,-42.14,-51.19,-51.99
2023/05/09 02:41:01+0000,-31.39,-41.19,-38.34,-42.13,-50.85,-51.74
2023/05/09 02:41:53+0000,-31.90,-43.68,-38.71,-41.83,-50.79,-51.61
2023/05/09 02:42:45+0000,-32.14,-43.16,-38.98,-40.01,-50.44,-51.76
2023/05/09 02:43:37+0000,-31.16,-43.74,-38.33,-40.69,-50.61,-51.68
2023/05/09 02:44:29+0000,-31.47,-42.28,-39.39,-42.10,-50.16,-51.57
2023/05/09 02:45:21+0000,-33.03,-43.39,-38.24,-41.95,-49.95,-51.53
2023/05/09 02:46:13+0000,-31.85,-41.74,-38.56,-41.15,-50.76,-51.33
2023/05/09 02:47:05+0000,-31.91,-41.73,-37.50,-43.42,-50.99,-51.37
2023/05/09 02:47:57+0000,-31.91,-42.43,-38.80,-42.38,-50.39,-51.94
2023/05/09 02:48:49+0000,-32.23,-42.52,-38.43,-42.28,-50.14,-50.97
2023/05/09 02:49:41+0000,-31.65,-42.40,-37.15,-41.33,-50.82,-50.61
2023/05/09 02:50:33+0000,-32.61,-43.31,-38.17,-41.24,-50.89,-51.53
2023/05/09 02:51:34+0000,-32.61,-42.62,-38.32,-42.14,-50.41,-51.90
2023/05/09 02:52:26+0000,-32.13,-43.13,-38.94,-40.58,-50.10,-51.39
2023/05/09 02:53:18+0000,-32.36,-42.66,-39.05,-40.35,-50.31,-51.23
2023/05/09 02:54:10+0000,-32.39,-42.70,-37.71,-41.49,-50.40,-51.52
2023/05/09 02:55:02+0000,-32.76,-42.30,-37.86,-40.32,-51.05,-52.08
2023/05/09 02:55:54+0000,-32.65,-43.19,-37.29,-41.00,-50.32,-52.01
2023/05/09 02:56:46+0000,-31.45,-42.99,-37.67,-40.33,-50.30,-51.44
2023/05/09 02:57:38+0000,-33.02,-43.04,-38.33,-39.25,-50.29,-51.82
2023/05/09 02:58:30+0000,-32.00,-42.16,-38.17,-39.35,-50.75,-51.71
2023/05/09 02:59:23+0000,-32.29,-41.97,-38.11,-38.87,-50.70,-51.89
2023/05/09 03:00:15+0000,-32.16,-43.12,-38.62,-40.21,-50.13,-52.06
2023/05/09 03:01:16+0000,-31.78,-41.96,-38.29,-39.87,-49.31,-52.00
2023/05/09 03:02:08+0000,-32.51,-42.23,-38.54,-40.12,-50.59,-52.07
2023/05/09 03:03:00+0000,-31.73,-41.01,-38.09,-40.43,-50.59,-52.08
2023/05/09 03:03:52+0000,-32.38,-40.88,-38.15,-40.76,-49.69,-51.48
2023/05/09 03:04:44+0000,-31.91,-41.93,-38.65,-40.14,-50.11,-52.18
2023/05/09 03:05:36+0000,-32.24,-41.71,-38.09,-41.35,-50.46,-51.86
2023/05/09 03:06:28+0000,-32.67,-40.17,-38.52,-40.24,-50.15,-52.12
2023/05/09 03:07:20+0000,-32.37,-41.58,-38.11,-40.78,-50.20,-52.02
2023/05/09 03:08:12+0000,-32.45,-41.46,-37.72,-39.78,-50.76,-51.66
2023/05/09 03:09:04+0000,-31.64,-40.37,-37.39,-40.18,-50.46,-52.47
2023/05/09 03:09:56+0000,-32.57,-41.00,-38.08,-40.83,-51.62,-52.58
2023/05/09 03:10:48+0000,-32.51,-40.85,-37.82,-43.30,-51.39,-51.98
2023/05/09 03:11:47+0000,-32.56,-41.02,-37.89,-40.52,-51.04,-51.86
2023/05/09 03:12:39+0000,-32.40,-40.95,-37.39,-41.94,-50.81,-51.84
2023/05/09 03:13:31+0000,-32.47,-41.95,-37.64,-42.99,-51.39,-51.86
2023/05/09 03:14:23+0000,-32.42,-41.39,-37.83,-41.71,-51.17,-51.96
2023/05/09 03:15:15+0000,-32.97,-42.05,-37.52,-40.36,-51.07,-52.11
2023/05/09 03:16:07+0000,-32.75,-42.01,-37.39,-40.86,-51.02,-51.83
2023/05/09 03:16:59+0000,-31.95,-41.74,-37.96,-42.08,-51.17,-52.25
2023/05/09 03:17:51+0000,-32.28,-42.34,-37.73,-42.36,-51.21,-51.66
2023/05/09 03:18:43+0000,-32.12,-41.29,-38.10,-42.24,-51.86,-52.14
2023/05/09 03:19:35+0000,-32.73,-41.55,-36.20,-41.15,-50.65,-52.19
2023/05/09 03:20:27+0000,-32.44,-41.41,-38.41,-38.75,-51.11,-52.17
2023/05/09 03:21:27+0000,-32.07,-41.12,-38.93,-40.42,-51.23,-52.36
2023/05/09 03:22:19+0000,-32.31,-40.38,-38.20,-40.80,-51.09,-52.50
2023/05/09 03:23:11+0000,-32.79,-40.62,-38.25,-41.52,-50.47,-51.64
2023/05/09 03:24:03+0000,-32.26,-40.70,-38.31,-40.05,-49.52,-52.66
2023/05/09 03:24:55+0000,-31.83,-40.70,-38.31,-40.80,-49.83,-51.67
2023/05/09 03:25:47+0000,-32.63,-42.12,-38.61,-40.33,-50.10,-52.50
2023/05/09 03:26:39+0000,-32.54,-41.46,-37.71,-40.44,-50.35,-52.67
2023/05/09 03:27:31+0000,-32.35,-41.44,-39.04,-41.12,-50.60,-52.41
2023/05/09 03:28:23+0000,-32.56,-41.96,-39.15,-39.29,-50.14,-51.58
2023/05/09 03:29:15+0000,-31.41,-41.97,-39.16,-42.51,-50.91,-52.52
2023/05/09 03:30:07+0000,-32.52,-43.25,-38.97,-41.58,-50.15,-52.13
2023/05/09 03:31:07+0000,-32.81,-43.30,-39.05,-42.34,-50.56,-52.06
2023/05/09 03:31:59+0000,-32.92,-42.23,-38.57,-43.14,-50.81,-52.59
2023/05/09 03:32:51+0000,-31.23,-42.82,-38.87,-43.41,-50.22,-52.33
2023/05/09 03:33:43+0000,-32.29,-40.95,-39.27,-42.29,-50.21,-52.62
2023/05/09 03:34:35+0000,-32.69,-40.11,-38.57,-43.17,-50.66,-52.60
2023/05/09 03:35:27+0000,-32.51,-41.51,-39.00,-42.74,-49.82,-52.66
2023/05/09 03:36:19+0000,-32.04,-41.36,-39.17,-40.74,-50.37,-53.02
2023/05/09 03:37:11+0000,-32.54,-39.50,-38.75,-41.73,-50.91,-52.27
2023/05/09 03:38:03+0000,-32.67,-40.88,-38.40,-41.42,-49.55,-52.41
2023/05/09 03:38:55+0000,-31.78,-41.26,-38.52,-41.98,-50.64,-53.24
2023/05/09 03:39:47+0000,-32.57,-41.74,-37.17,-41.13,-50.69,-52.49
2023/05/09 03:40:39+0000,-32.15,-39.70,-39.21,-41.69,-49.53,-52.47
2023/05/09 03:41:37+0000,-31.87,-42.84,-38.84,-41.44,-49.45,-51.44
2023/05/09 03:42:29+0000,-32.59,-41.36,-38.90,-40.63,-47.66,-51.44
2023/05/09 03:43:21+0000,-32.18,-43.14,-37.47,-40.45,-49.67,-52.08
2023/05/09 03:44:13+0000,-30.95,-39.33,-38.88,-40.82,-49.76,-52.04
2023/05/09 03:45:05+0000,-33.03,-41.25,-39.02,-41.48,-49.92,-52.85
2023/05/09 03:45:57+0000,-32.23,-41.20,-38.49,-42.12,-51.10,-53.02
2023/05/09 03:46:49+0000,-32.61,-40.35,-38.12,-43.57,-50.56,-52.42
2023/05/09 03:47:42+0000,-32.85,-39.59,-38.88,-41.20,-50.95,-52.71
2023/05/09 03:48:34+0000,-32.22,-41.15,-38.69,-41.36,-50.39,-52.82
2023/05/09 03:49:26+0000,-31.98,-42.13,-38.80,-41.27,-50.37,-52.88
2023/05/09 03:50:18+0000,-31.95,-40.80,-38.67,-42.06,-51.14,-52.31
2023/05/09 03:51:16+0000,-32.75,-41.24,-37.75,-42.09,-50.18,-52.92
2023/05/09 03:52:08+0000,-32.10,-42.44,-38.90,-40.54,-50.00,-53.08
2023/05/09 03:53:00+0000,-32.41,-40.70,-38.86,-40.16,-49.32,-52.28
2023/05/09 03:53:52+0000,-32.74,-43.18,-38.55,-40.70,-49.29,-53.09
2023/05/09 03:54:44+0000,-32.35,-40.24,-38.70,-41.05,-50.49,-52.89
2023/05/09 03:55:36+0000,-31.62,-40.79,-38.75,-41.14,-50.09,-53.02
2023/05/09 03:56:28+0000,-31.95,-40.05,-40.61,-40.15,-49.70,-53.17
2023/05/09 03:57:20+0000,-32.79,-40.59,-38.22,-43.06,-49.97,-52.65
2023/05/09 03:58:12+0000,-32.13,-40.36,-40.34,-43.21,-50.21,-52.18
2023/05/09 03:59:04+0000,-31.48,-40.71,-40.24,-42.61,-50.70,-52.71
2023/05/09 03:59:56+0000,-31.94,-40.43,-39.78,-41.33,-50.84,-52.91
2023/05/09 04:00:48+0000,-32.40,-39.56,-39.60,-43.37,-51.14,-53.55
2023/05/09 04:01:49+0000,-32.44,-41.15,-39.75,-43.43,-51.77,-53.51
2023/05/09 04:02:41+0000,-32.12,-40.26,-40.57,-43.01,-50.92,-53.28
2023/05/09 04:03:33+0000,-32.09,-41.07,-40.24,-44.00,-50.88,-52.94
2023/05/09 04:04:25+0000,-32.23,-41.04,-40.55,-40.61,-50.43,-53.45
2023/05/09 04:05:17+0000,-32.01,-40.16,-39.59,-41.58,-51.01,-53.35
2023/05/09 04:06:09+0000,-32.17,-40.60,-40.37,-40.64,-50.35,-53.49
2023/05/09 04:07:01+0000,-32.45,-41.49,-40.12,-41.32,-50.90,-53.46
2023/05/09 04:07:53+0000,-31.20,-40.89,-40.29,-42.52,-51.10,-53.44
2023/05/09 04:08:45+0000,-31.25,-39.11,-38.90,-43.45,-51.33,-53.84
2023/05/09 04:09:37+0000,-31.10,-39.88,-39.36,-42.42,-50.65,-53.77
2023/05/09 04:10:29+0000,-31.57,-41.52,-38.88,-41.71,-50.79,-53.43
2023/05/09 04:11:28+0000,-31.94,-41.44,-39.72,-41.90,-50.06,-53.44
2023/05/09 04:12:20+0000,-31.41,-40.70,-38.91,-42.78,-51.20,-53.20
2023/05/09 04:13:12+0000,-31.44,-41.87,-39.14,-42.19,-50.92,-53.59
2023/05/09 04:14:04+0000,-31.11,-40.45,-39.19,-42.10,-51.02,-53.64
2023/05/09 04:14:56+0000,-31.29,-41.85,-39.51,-41.91,-50.95,-52.93
2023/05/09 04:15:48+0000,-32.52,-39.50,-38.95,-41.47,-50.61,-53.23
2023/05/09 04:16:40+0000,-31.25,-41.48,-39.60,-40.48,-50.81,-53.52
2023/05/09 04:17:32+0000,-30.18,-40.66,-38.77,-42.04,-50.97,-53.55
2023/05/09 04:18:24+0000,-31.18,-40.84,-38.95,-41.24,-50.92,-53.63
2023/05/09 04:19:16+0000,-31.22,-41.93,-38.90,-41.55,-51.26,-53.58
2023/05/09 04:20:08+0000,-31.03,-40.79,-39.70,-41.63,-51.16,-54.04
2023/05/09 04:21:09+0000,-32.24,-41.69,-39.72,-41.84,-50.71,-53.48
2023/05/09 04:22:01+0000,-32.50,-41.26,-40.44,-41.53,-49.58,-52.35
2023/05/09 04:22:53+0000,-31.95,-41.47,-39.59,-41.49,-50.10,-53.09
2023/05/09 04:23:45+0000,-32.01,-41.06,-39.39,-48.56,-51.06,-52.85
2023/05/09 04:24:37+0000,-35.59,-42.32,-39.71,-48.60,-50.80,-52.62
2023/05/09 04:25:29+0000,-35.16,-41.08,-40.06,-47.17,-50.41,-52.47
2023/05/09 04:26:21+0000,-34.23,-42.45,-40.34,-45.91,-50.41,-53.33
2023/05/09 04:27:13+0000,-35.33,-39.14,-40.21,-48.14,-51.89,-53.61
2023/05/09 04:28:05+0000,-35.89,-41.89,-40.52,-49.25,-52.14,-54.31
2023/05/09 04:28:57+0000,-35.56,-41.68,-40.74,-45.59,-52.50,-54.06
2023/05/09 04:29:49+0000,-36.02,-41.02,-40.55,-49.42,-52.47,-54.22
2023/05/09 04:30:41+0000,-35.45,-40.63,-39.84,-48.35,-52.09,-54.19
2023/05/09 04:31:41+0000,-35.78,-39.69,-40.39,-49.80,-52.43,-54.10
2023/05/09 04:32:33+0000,-35.76,-41.82,-40.51,-48.05,-51.99,-55.02
2023/05/09 04:33:25+0000,-35.12,-41.78,-40.27,-48.63,-51.53,-54.26
2023/05/09 04:34:17+0000,-35.42,-41.43,-39.78,-49.21,-51.41,-54.09
2023/05/09 04:35:09+0000,-34.80,-41.20,-39.84,-48.20,-52.46,-54.65
2023/05/09 04:36:01+0000,-35.97,-41.80,-40.48,-50.40,-51.52,-54.40
2023/05/09 04:36:53+0000,-36.23,-41.44,-40.34,-46.13,-51.10,-54.58
2023/05/09 04:37:45+0000,-35.71,-39.64,-40.47,-49.99,-52.19,-54.63
2023/05/09 04:38:37+0000,-36.02,-41.83,-40.82,-49.78,-51.51,-53.40
2023/05/09 04:39:29+0000,-36.80,-41.40,-40.64,-48.31,-51.45,-53.75
2023/05/09 04:40:21+0000,-34.47,-42.22,-40.17,-48.92,-51.50,-53.66
2023/05/09 04:41:21+0000,-35.40,-41.72,-40.11,-48.28,-51.13,-54.35
2023/05/09 04:42:13+0000,-35.34,-41.54,-40.73,-50.39,-51.04,-53.29
2023/05/09 04:43:05+0000,-34.89,-40.99,-40.47,-50.16,-51.43,-53.43
2023/05/09 04:43:57+0000,-35.22,-41.00,-40.58,-48.56,-50.61,-53.77
2023/05/09 04:44:49+0000,-35.37,-41.32,-39.97,-50.08,-50.89,-53.74
2023/05/09 04:45:41+0000,-35.07,-39.30,-40.00,-49.19,-50.76,-54.17
2023/05/09 04:46:33+0000,-35.20,-40.56,-40.31,-49.23,-50.94,-54.63
2023/05/09 04:47:25+0000,-36.15,-43.07,-40.41,-48.47,-50.03,-53.11